Miscellaneous Local Product
Issued by NWS North Platte, NE

Home | Current Version | Previous Version | Text Only | Print | Product List | Glossary On
Versions: 1 2 3 4 5 6 7 8 9 10 11 12 13 14 15 16 17 18 19 20 21 22 23 24 25 26 27 28 29 30 31 32 33 34 35 36 37 38 39 40 41 42 43 44 45 46 47 48 49 50
000
AXUS43 KLBF 240010
MISLBF


WESTERN AND NORTH CENTRAL NEBRASKA HOURLY WEATHER ROUNDUP
NATIONAL WEATHER SERVICE NORTH PLATTE NE
600 PM CST THU NOV 23 2017

NOTE: "FAIR" INDICATES FEW OR NO CLOUDS BELOW 12,000 FEET WITH NO
SIGNIFICANT WEATHER AND/OR OBSTRUCTIONS TO VISIBILITY.

NOTE: STATIONS NOT REPORTING VARIABLES SUCH AS SKY/WEATHER OR
PRESSURE ARE PROVIDED BY RAWS AND APRS NETWORKS AND ARE NOT UNDER
NATIONAL WEATHER SERVICE QUALITY CONTROL.

...OBSERVATIONS IN AND NEAR THE EASTERN PANHANDLE OF NEBRASKA...

CITY           SKY/WX    TMP DP  RH WIND       PRES   REMARKS
PINE RIDGE     CLOUDY    55  36  48 SW3       29.78F
GORDON         FAIR      56  36  47 W3        29.78F
CHADRON        CLOUDY    60  35  39 W7        29.79S
ALLIANCE       CLEAR     52  36  54 W3        29.85F
SIDNEY         CLOUDY    61  32  33 W14       29.91F
$$

...OBSERVATIONS IN NORTHERN NEBRASKA AND FAR SOUTHERN SOUTH DAKOTA...

CITY           SKY/WX    TMP DP  RH WIND       PRES   REMARKS
WINNER         FAIR      64  40  41 SW10      29.71F
VALENTINE      PTCLDY    54  37  52 SW9       29.75F
THEDFORD       PTCLDY    60  39  45 S8        29.81F
AINSWORTH      CLOUDY    60  40  47 SW8       29.78S
O`NEILL        CLOUDY    60  43  53 S5        29.77F
ORD            PTCLDY    59  40  49 SW5       29.80F
BROKEN BOW     CLOUDY    60  42  51 SW5       29.82F
VALENTINE NWR    N/A     64  38  38 SW5G13      N/A
HALSEY           N/A     66  39  37 CALM        N/A
BUTTE            N/A     65  42  43 SW5         N/A
CHAMBERS         N/A     62  40  44 W7          N/A
EWING            N/A     61  44  53 S3          N/A
$$

...OBSERVATIONS IN SOUTHWEST NEBRASKA AND FAR NORTHEAST COLORADO...

CITY           SKY/WX    TMP DP  RH WIND       PRES   REMARKS
HOLYOKE        FAIR      59  34  38 SW7       29.90F
IMPERIAL       CLOUDY    58  35  42 S7        29.88F
OGALLALA       CLOUDY    60  38  44 CALM      29.85F
NORTH PLATTE   CLOUDY    52  40  63 S3        29.85F
MCCOOK         CLOUDY    60  40  47 S12       29.87F
LEXINGTON      CLOUDY    57  40  54 S7        29.85F
STAPLETON        N/A     59  41  52 CALM        N/A
GOTHENBURG       N/A     61  39  44 CALM        N/A
CALLAWAY         N/A     58  42  56 SW8         N/A
$$

...OBSERVATIONS IN CENTRAL LINCOLN COUNTY AREA...

CITY           SKY/WX    TMP DP  RH WIND       PRES   REMARKS
N.P. AIRPORT   CLOUDY    52  40  63 S3        29.85F
N.P. DOWNTOWN    N/A     58  42  55 CALM        N/A
N.P. SOUTHEAST   N/A     59  41  51 CALM        N/A
N.P. HILLCREST   N/A     63  42  47 S3          N/A
$$

...SOME OBSERVATIONS FROM AROUND THE REGION...

CITY           SKY/WX    TMP DP  RH WIND       PRES   REMARKS
DENVER         CLOUDY    60  23  24 S8        30.01S
COPPER MTN     CLOUDY    36  27  69 MISG      30.44S
GRAND JUNCTION CLOUDY    54  35  48 NW3       30.19F
LARAMIE        CLOUDY    52  30  43 S15       30.11S
CHEYENNE       CLOUDY    59  30  33 W23       30.01F
CASPER         CLOUDY    55  36  48 SW16      29.95F
BISMARCK       CLOUDY    59  38  45 SW5       29.52F
RAPID CITY     CLOUDY    63  32  31 W13       29.71F
PIERRE         CLEAR     59  40  49 S7        29.64F
SIOUX FALLS    CLOUDY    55  39  54 S9        29.73F
OMAHA          CLOUDY    51  37  58 S10       29.85F
GRAND ISLAND   CLOUDY    60  41  49 S9        29.84F
SCOTTSBLUFF    CLEAR     57  36  45 W9        29.87F
KANSAS CITY    PTCLDY    50  35  56 S7        29.93F
HILL CITY      CLOUDY    63  41  44 SW6       29.90F
WICHITA        PTCLDY    55  37  50 S8        29.94F
DODGE CITY     CLOUDY    62  39  42 SW3       29.96F
OKLAHOMA CITY  PTCLDY    61  32  33 S5        30.00R
DALLAS         PTCLDY    62  30  29 SE6       30.02F
AMARILLO       CLOUDY    64  37  36 CALM      30.06F
$$




USA.gov is the U.S. government's official web portal to all federal, state and local government web resources and services.